Regional Weather Roundup
Issued by NWS Albany, NY

Home | Current Version | Previous Version | Text Only | Print | Product List | Glossary On
Versions: 1 2 3 4 5 6 7 8 9 10 11 12 13 14 15 16 17 18 19 20 21 22 23 24 25 26 27
000
ASUS41 KALY 051510
RWRALY

NEW YORK STATE HOURLY WEATHER ROUNDUP
NATIONAL WEATHER SERVICE ALBANY NY
1100 AM EDT THU MAY 05 2016

NOTE: "FAIR" INDICATES FEW OR NO CLOUDS BELOW 12,000 FEET WITH NO
SIGNIFICANT WEATHER AND/OR NO OBSTRUCTIONS TO VISIBILITY.

NYZ032-033-038>043-046>054-057>066-NYZ062>081-082-084-051600-
EAST


CITY           SKY/WX    TMP DP  RH WIND       PRES   REMARKS
ALBANY         CLOUDY    53  43  68 N10       29.79S
GLENS FALLS    CLOUDY    53  42  66 NE12      29.81S
POUGHKEEPSIE   CLOUDY    54  43  66 N10       29.73F
NEWBURGH       CLOUDY    52  45  76 NE12      29.73F
MONTGOMERY     CLOUDY    52  44  74 NE16      29.72F
WHITE PLAINS   PTSUNNY   51  42  71 NE8       29.70S
ISLIP          CLOUDY    50  41  71 NE18G25   29.69S
NEW YORK CITY  CLOUDY    51  44  77 NE15      29.70F
CENTRAL PARK   CLOUDY    51  41  68 VRB7      29.73S
$$

NYZ005>009-017-018-044>046-055-056-051600-
CENTRAL


CITY           SKY/WX    TMP DP  RH WIND       PRES   REMARKS
FULTON         MOSUNNY   62  44  51 NE7       29.79F
SYRACUSE       PTSUNNY   54  43  66 E6        29.78S
ROME           CLOUDY    56  44  64 VRB7      29.80R
ELMIRA         CLOUDY    53  42  66 NE10      29.76S
BINGHAMTON     CLOUDY    49  40  71 E10       29.74S
MONTICELLO     CLOUDY    46  43  87 E6        29.74F
$$

NYZ026>034-041>043-087-051600-
NORTH


CITY           SKY/WX    TMP DP  RH WIND       PRES   REMARKS
WATERTOWN      MOSUNNY   55  44  66 NE13      29.81S
FORT DRUM      NOT AVBL
MASSENA        MOSUNNY   56  41  57 NE17      29.88S
SARANAC LAKE   CLOUDY    48  40  73 NE9       29.81F
PLATTSBURGH    PTSUNNY   56  44  64 N12G18    29.83F
$$

NYZ001>004-010>016-019>021-085-051600-
WEST


CITY           SKY/WX    TMP DP  RH WIND       PRES   REMARKS
NIAGARA FALLS  PTSUNNY   59  46  62 NE15      29.80R
BUFFALO        PTSUNNY   55  46  71 NE10      29.80R
DUNKIRK        PTSUNNY   51  47  86 NE13      29.79R
JAMESTOWN      CLOUDY    54  45  71 NE9G20    29.75R
WELLSVILLE     CLOUDY    52  43  71 NE8       29.76S
ROCHESTER      MOSUNNY   57  44  62 NE16      29.81R
PENN YAN       CLOUDY    52  43  71 VRB7      29.79R
$$

             KEY
       WCI = WIND CHILL INDEX
       VSB = VISIBILITY
       HX  = HEAT INDEX
$$




USA.gov is the U.S. government's official web portal to all federal, state and local government web resources and services.